Weather History for Midland, TX

Change the Weather History Date:

Saturday, September 14, 2013

  Actual Average Record
Temperature  
Mean Temperature 78 °F 75 °F  
Max Temperature 91 °F 87 °F 99 °F (1965)
Min Temperature 65 °F 63 °F 51 °F (1993)
Degree Days  
Heating Degree Days 0 0  
Month to date heating degree days 0 0  
Since 1 July heating degree days 0 0  
Cooling Degree Days 13 10  
Month to date cooling degree days 231 168  
Year to date cooling degree days 2406 2052  
Growing Degree Days 28 (Base 50)    
Moisture  
Dew Point 53 °F    
Average Humidity 45    
Maximum Humidity 63    
Minimum Humidity 26    
Precipitation  
Precipitation 0.00 in 0.07 in 0.73 in (1995)
Month to date precipitation T 0.95  
Year to date precipitation 4.57 10.67  
Sea Level Pressure  
Sea Level Pressure 29.84 in    
Wind  
Wind Speed 10 mph (SSE)    
Max Wind Speed 24 mph    
Max Gust Speed 35 mph    
Visibility 10 miles    
Events      
T = Trace of Precipitation, MM = Missing Value Source: NWS Daily Summary

Daily Weather History Graph

Daily Weather History Graph

Search for Another Location

Airport:

Trip Planner

Search our weather history database for the weather conditions in past years. The results will help you decide how hot, cold, wet, or windy it might be!

Date:

Astronomy

Sep. 14, 2013 Rise Set
Actual Time 7:32 AM CDT 7:55 PM CDT
Civil Twilight 7:07 AM CDT 8:20 PM CDT
Nautical Twilight 6:39 AM CDT 8:48 PM CDT
Astronomical Twilight 6:10 AM CDT 9:17 PM CDT
Moon 4:25 PM CDT (9/14) 2:20 AM CDT (9/14)
Length of Visible Light 13h 12m
Length of Day
12h 23m
Waxing Gibbous, 72% of the Moon is Illuminated
Sep 14
Waxing Gibbous
Sep 19
Full
Sep 26
Last Quarter
Oct 4
New
Oct 11
First Quarter

Hourly Weather History & Observations

Time (CDT) Temp. Heat Index Dew Point Humidity Pressure Visibility Wind Dir Wind Speed Gust Speed Precip Events Conditions
12:53 AM 73.9 °F - 54.0 °F 50% 29.85 in 10.0 mi SE 4.6 mph - N/A   Clear
1:53 AM 73.0 °F - 53.1 °F 49% 29.84 in 10.0 mi SE 5.8 mph - N/A   Partly Cloudy
2:53 AM 71.1 °F - 53.1 °F 53% 29.84 in 10.0 mi SSE 4.6 mph - N/A   Clear
3:53 AM 70.0 °F - 53.1 °F 55% 29.83 in 10.0 mi SSE 4.6 mph - N/A   Clear
4:53 AM 69.1 °F - 53.1 °F 57% 29.83 in 10.0 mi SSE 4.6 mph - N/A   Clear
5:53 AM 66.9 °F - 53.1 °F 61% 29.83 in 10.0 mi Calm Calm - N/A   Clear
6:53 AM 66.0 °F - 52.0 °F 60% 29.85 in 10.0 mi Calm Calm - N/A   Clear
7:53 AM 66.0 °F - 53.1 °F 63% 29.87 in 10.0 mi SE 4.6 mph - N/A   Clear
8:53 AM 72.0 °F - 55.9 °F 57% 29.88 in 10.0 mi SSE 5.8 mph - N/A   Clear
9:53 AM 78.1 °F - 55.9 °F 46% 29.89 in 10.0 mi South 13.8 mph - N/A   Clear
10:53 AM 81.0 °F 80.8 °F 55.9 °F 42% 29.90 in 10.0 mi South 13.8 mph - N/A   Clear
11:53 AM 84.9 °F 83.3 °F 54.0 °F 34% 29.89 in 10.0 mi SSE 18.4 mph 21.9 mph N/A   Clear
12:53 PM 87.1 °F 84.9 °F 53.1 °F 31% 29.88 in 10.0 mi SSE 18.4 mph 26.5 mph N/A   Clear
1:53 PM 87.1 °F 85.1 °F 54.0 °F 32% 29.85 in 10.0 mi South 16.1 mph 25.3 mph N/A   Mostly Cloudy
2:53 PM 89.1 °F 86.7 °F 53.1 °F 29% 29.82 in 10.0 mi SSE 19.6 mph 24.2 mph N/A   Mostly Cloudy
3:53 PM 89.1 °F 86.9 °F 54.0 °F 30% 29.80 in 10.0 mi SE 15.0 mph 23.0 mph N/A   Mostly Cloudy
4:53 PM 91.0 °F - 52.0 °F 26% 29.78 in 10.0 mi South 17.3 mph 25.3 mph N/A   Scattered Clouds
5:53 PM 88.0 °F 85.7 °F 53.1 °F 30% 29.79 in 10.0 mi SE 15.0 mph 24.2 mph N/A   Mostly Cloudy
6:53 PM 87.1 °F 85.1 °F 54.0 °F 32% 29.80 in 10.0 mi SE 13.8 mph 21.9 mph N/A   Scattered Clouds
7:53 PM 86.0 °F 84.0 °F 53.1 °F 32% 29.81 in 10.0 mi SSE 16.1 mph - N/A   Clear
8:53 PM 82.9 °F - 52.0 °F 34% 29.81 in 10.0 mi SE 9.2 mph - N/A   Clear
9:53 PM 80.1 °F - 52.0 °F 38% 29.83 in 10.0 mi SE 6.9 mph - N/A   Clear
10:53 PM 78.1 °F - 52.0 °F 40% 29.85 in 10.0 mi SSE 8.1 mph - N/A   Clear
11:53 PM 75.0 °F - 50.0 °F 41% 29.86 in 10.0 mi SSE 8.1 mph - N/A   Clear